Year,Month,Day,Hour,Minute,Value (Times are PST for temperature in C)
2018,07,14,00,00,17.40
2018,07,14,00,01,17.40
2018,07,14,00,02,17.50
2018,07,14,00,03,17.60
2018,07,14,00,04,17.60
2018,07,14,00,05,17.70
2018,07,14,00,06,17.80
2018,07,14,00,07,17.80
2018,07,14,00,08,17.90
2018,07,14,00,09,17.90
2018,07,14,00,10,17.90
2018,07,14,00,11,18.00
2018,07,14,00,12,18.10
2018,07,14,00,13,18.10
2018,07,14,00,14,18.10
2018,07,14,00,15,18.20
2018,07,14,00,16,18.20
2018,07,14,00,17,18.20
2018,07,14,00,18,18.20
2018,07,14,00,19,18.30
2018,07,14,00,20,18.30
2018,07,14,00,21,18.30
2018,07,14,00,22,18.40
2018,07,14,00,23,18.40
2018,07,14,00,24,18.40
2018,07,14,00,25,18.40
2018,07,14,00,26,18.50
2018,07,14,00,27,18.50
2018,07,14,00,28,18.40
2018,07,14,00,29,18.40
2018,07,14,00,30,18.40
2018,07,14,00,31,18.40
2018,07,14,00,32,18.40
2018,07,14,00,33,18.40
2018,07,14,00,34,18.30
2018,07,14,00,35,18.40
2018,07,14,00,36,18.40
2018,07,14,00,37,18.50
2018,07,14,00,38,18.50
2018,07,14,00,39,18.60
2018,07,14,00,40,18.60
2018,07,14,00,41,18.70
2018,07,14,00,42,18.70
2018,07,14,00,43,18.70
2018,07,14,00,44,18.70
2018,07,14,00,45,18.80
2018,07,14,00,46,18.80
2018,07,14,00,47,18.80
2018,07,14,00,48,18.80
2018,07,14,00,49,18.80
2018,07,14,00,50,18.80
2018,07,14,00,51,18.80
2018,07,14,00,52,18.80
2018,07,14,00,53,18.90
2018,07,14,00,54,18.90
2018,07,14,00,55,18.90
2018,07,14,00,56,18.90
2018,07,14,00,57,18.90
2018,07,14,00,58,18.90
2018,07,14,00,59,18.90
2018,07,14,01,00,19.00
2018,07,14,01,01,19.00
2018,07,14,01,02,19.00
2018,07,14,01,03,19.00
2018,07,14,01,04,19.10
2018,07,14,01,05,19.10
2018,07,14,01,06,19.10
2018,07,14,01,07,19.10
2018,07,14,01,08,19.10
2018,07,14,01,09,19.00
2018,07,14,01,10,19.00
2018,07,14,01,11,18.90
2018,07,14,01,12,18.90
2018,07,14,01,13,18.90
2018,07,14,01,14,18.80
2018,07,14,01,15,18.80
2018,07,14,01,16,18.70
2018,07,14,01,17,18.70
2018,07,14,01,18,18.60
2018,07,14,01,19,18.60
2018,07,14,01,20,18.50
2018,07,14,01,21,18.40
2018,07,14,01,22,18.40
2018,07,14,01,23,18.30
2018,07,14,01,24,18.20
2018,07,14,01,25,18.20
2018,07,14,01,26,18.20
2018,07,14,01,27,18.10
2018,07,14,01,28,18.10
2018,07,14,01,29,18.10
2018,07,14,01,30,18.00
2018,07,14,01,31,18.00
2018,07,14,01,32,18.00
2018,07,14,01,33,18.00
2018,07,14,01,34,18.00
2018,07,14,01,35,17.90
2018,07,14,01,36,17.90
2018,07,14,01,37,17.90
2018,07,14,01,38,17.90
2018,07,14,01,39,17.90
2018,07,14,01,40,17.90
2018,07,14,01,41,17.80
2018,07,14,01,42,17.80
2018,07,14,01,43,17.80
2018,07,14,01,44,17.80
2018,07,14,01,45,17.80
2018,07,14,01,46,17.80
2018,07,14,01,47,17.90
2018,07,14,01,48,17.90
2018,07,14,01,49,17.90
2018,07,14,01,50,17.90
2018,07,14,01,51,17.90
2018,07,14,01,52,17.90
2018,07,14,01,53,18.00
2018,07,14,01,54,18.10
2018,07,14,01,55,18.10
2018,07,14,01,56,18.10
2018,07,14,01,57,18.10
2018,07,14,01,58,18.20
2018,07,14,01,59,18.20
2018,07,14,02,00,18.20
2018,07,14,02,01,18.20
2018,07,14,02,02,18.20
2018,07,14,02,03,18.20
2018,07,14,02,04,18.20
2018,07,14,02,05,18.20
2018,07,14,02,06,18.20
2018,07,14,02,07,18.30
2018,07,14,02,08,18.30
2018,07,14,02,09,18.30
2018,07,14,02,10,18.30
2018,07,14,02,11,18.30
2018,07,14,02,12,18.30
2018,07,14,02,13,18.30
2018,07,14,02,14,18.30
2018,07,14,02,15,18.40
2018,07,14,02,16,18.40
2018,07,14,02,17,18.40
2018,07,14,02,18,18.40
2018,07,14,02,19,18.40
2018,07,14,02,20,18.40
2018,07,14,02,21,18.40
2018,07,14,02,22,18.40
2018,07,14,02,23,18.40
2018,07,14,02,24,18.40
2018,07,14,02,25,18.40
2018,07,14,02,26,18.30
2018,07,14,02,27,18.30
2018,07,14,02,28,18.30
2018,07,14,02,29,18.30
2018,07,14,02,30,18.30
2018,07,14,02,31,18.30
2018,07,14,02,32,18.30
2018,07,14,02,33,18.30
2018,07,14,02,34,18.30
2018,07,14,02,35,18.20
2018,07,14,02,36,18.20
2018,07,14,02,37,18.20
2018,07,14,02,38,18.20
2018,07,14,02,39,18.30
2018,07,14,02,40,18.30
2018,07,14,02,41,18.20
2018,07,14,02,42,18.20
2018,07,14,02,43,18.20
2018,07,14,02,44,18.20
2018,07,14,02,45,18.20
2018,07,14,02,46,18.20
2018,07,14,02,47,18.20
2018,07,14,02,48,18.10
2018,07,14,02,49,18.10
2018,07,14,02,50,18.10
2018,07,14,02,51,18.10
2018,07,14,02,52,18.10
2018,07,14,02,53,18.10
2018,07,14,02,54,18.10
2018,07,14,02,55,18.10
2018,07,14,02,56,18.00
2018,07,14,02,57,18.00
2018,07,14,02,58,17.90
2018,07,14,02,59,17.90
2018,07,14,03,00,17.90
2018,07,14,03,01,17.90
2018,07,14,03,02,17.80
2018,07,14,03,03,17.80
2018,07,14,03,04,17.80
2018,07,14,03,05,17.80
2018,07,14,03,06,17.80
2018,07,14,03,07,17.80
2018,07,14,03,08,17.80
2018,07,14,03,09,17.80
2018,07,14,03,10,17.80
2018,07,14,03,11,17.80
2018,07,14,03,12,17.80
2018,07,14,03,13,17.80
2018,07,14,03,14,17.80
2018,07,14,03,15,17.70
2018,07,14,03,16,17.70
2018,07,14,03,17,17.70
2018,07,14,03,18,17.70
2018,07,14,03,19,17.70
2018,07,14,03,20,17.60
2018,07,14,03,21,17.60
2018,07,14,03,22,17.70
2018,07,14,03,23,17.70
2018,07,14,03,24,17.60
2018,07,14,03,25,17.60
2018,07,14,03,26,17.60
2018,07,14,03,27,17.60
2018,07,14,03,28,17.60
2018,07,14,03,29,17.60
2018,07,14,03,30,17.60
2018,07,14,03,31,17.60
2018,07,14,03,32,17.60
2018,07,14,03,33,17.60
2018,07,14,03,34,17.60
2018,07,14,03,35,17.60
2018,07,14,03,36,17.60
2018,07,14,03,37,17.60
2018,07,14,03,38,17.60
2018,07,14,03,39,17.50
2018,07,14,03,40,17.50
2018,07,14,03,41,17.50
2018,07,14,03,42,17.50
2018,07,14,03,43,17.40
2018,07,14,03,44,17.40
2018,07,14,03,45,17.40
2018,07,14,03,46,17.40
2018,07,14,03,47,17.40
2018,07,14,03,48,17.40
2018,07,14,03,49,17.40
2018,07,14,03,50,17.30
2018,07,14,03,51,17.30
2018,07,14,03,52,17.30
2018,07,14,03,53,17.30
2018,07,14,03,54,17.20
2018,07,14,03,55,17.20
2018,07,14,03,56,17.20
2018,07,14,03,57,17.10
2018,07,14,03,58,17.10
2018,07,14,03,59,17.10
2018,07,14,04,00,17.10
2018,07,14,04,01,17.10
2018,07,14,04,02,17.00
2018,07,14,04,03,17.00
2018,07,14,04,04,17.00
2018,07,14,04,05,16.90
2018,07,14,04,06,16.90
2018,07,14,04,07,16.90
2018,07,14,04,08,16.90
2018,07,14,04,09,16.90
2018,07,14,04,10,16.90
2018,07,14,04,11,16.80
2018,07,14,04,12,16.80
2018,07,14,04,13,16.80
2018,07,14,04,14,16.80
2018,07,14,04,15,16.80
2018,07,14,04,16,16.80
2018,07,14,04,17,16.80
2018,07,14,04,18,16.80
2018,07,14,04,19,16.80
2018,07,14,04,20,16.80
2018,07,14,04,21,16.90
2018,07,14,04,22,16.90
2018,07,14,04,23,16.90
2018,07,14,04,24,16.90
2018,07,14,04,25,16.90
2018,07,14,04,26,16.90
2018,07,14,04,27,16.90
2018,07,14,04,28,16.90
2018,07,14,04,29,16.90
2018,07,14,04,30,16.90
2018,07,14,04,31,16.90
2018,07,14,04,32,16.90
2018,07,14,04,33,16.80
2018,07,14,04,34,16.80
2018,07,14,04,35,16.80
2018,07,14,04,36,16.80
2018,07,14,04,37,16.80
2018,07,14,04,38,16.80
2018,07,14,04,39,16.80
2018,07,14,04,40,16.80
2018,07,14,04,41,16.70
2018,07,14,04,42,16.70
2018,07,14,04,43,16.70
2018,07,14,04,44,16.70
2018,07,14,04,45,16.70
2018,07,14,04,46,16.70
2018,07,14,04,47,16.70
2018,07,14,04,48,16.70
2018,07,14,04,49,16.70
2018,07,14,04,50,16.70
2018,07,14,04,51,16.70
2018,07,14,04,52,16.70
2018,07,14,04,53,16.70
2018,07,14,04,54,16.70
2018,07,14,04,55,16.70
2018,07,14,04,56,16.70
2018,07,14,04,57,16.70
2018,07,14,04,58,16.70
2018,07,14,04,59,16.60
2018,07,14,05,00,16.60
2018,07,14,05,01,16.60
2018,07,14,05,02,16.60
2018,07,14,05,03,16.60
2018,07,14,05,04,16.60
2018,07,14,05,05,16.60
2018,07,14,05,06,16.60
2018,07,14,05,07,16.60
2018,07,14,05,08,16.60
2018,07,14,05,09,16.60
2018,07,14,05,10,16.60
2018,07,14,05,11,16.60
2018,07,14,05,12,16.60
2018,07,14,05,13,16.60
2018,07,14,05,14,16.60
2018,07,14,05,15,16.60
2018,07,14,05,16,16.60
2018,07,14,05,17,16.60
2018,07,14,05,18,16.60
2018,07,14,05,19,16.60
2018,07,14,05,20,16.60
2018,07,14,05,21,16.60
2018,07,14,05,22,16.60
2018,07,14,05,23,16.60
2018,07,14,05,24,16.60
2018,07,14,05,25,16.60
2018,07,14,05,26,16.60
2018,07,14,05,27,16.60
2018,07,14,05,28,16.60
2018,07,14,05,29,16.60
2018,07,14,05,30,16.60
2018,07,14,05,31,16.60
2018,07,14,05,32,16.60
2018,07,14,05,33,16.60
2018,07,14,05,34,16.60
2018,07,14,05,35,16.60
2018,07,14,05,36,16.60
2018,07,14,05,37,16.60
2018,07,14,05,38,16.60
2018,07,14,05,39,16.60
2018,07,14,05,40,16.60
2018,07,14,05,41,16.60
2018,07,14,05,42,16.60
2018,07,14,05,43,16.60
2018,07,14,05,44,16.60
2018,07,14,05,45,16.60
2018,07,14,05,46,16.60
2018,07,14,05,47,16.60
2018,07,14,05,48,16.60
2018,07,14,05,49,16.60
2018,07,14,05,50,16.60
2018,07,14,05,51,16.60
2018,07,14,05,52,16.60
2018,07,14,05,53,16.60
2018,07,14,05,54,16.60
2018,07,14,05,55,16.60
2018,07,14,05,56,16.60
2018,07,14,05,57,16.60
2018,07,14,05,58,16.60
2018,07,14,05,59,16.60
2018,07,14,06,00,16.60
2018,07,14,06,01,16.60
2018,07,14,06,02,16.60
2018,07,14,06,03,16.60
2018,07,14,06,04,16.60
2018,07,14,06,05,16.60
2018,07,14,06,06,16.60
2018,07,14,06,07,16.60
2018,07,14,06,08,16.60
2018,07,14,06,09,16.60
2018,07,14,06,10,16.60
2018,07,14,06,11,16.60
2018,07,14,06,12,16.60
2018,07,14,06,13,16.60
2018,07,14,06,14,16.60
2018,07,14,06,15,16.60
2018,07,14,06,16,16.60
2018,07,14,06,17,16.60
2018,07,14,06,18,16.60
2018,07,14,06,19,16.60
2018,07,14,06,20,16.70
2018,07,14,06,21,16.70
2018,07,14,06,22,16.70
2018,07,14,06,23,16.70
2018,07,14,06,24,16.70
2018,07,14,06,25,16.70
2018,07,14,06,26,16.70
2018,07,14,06,27,16.60
2018,07,14,06,28,16.60
2018,07,14,06,29,16.60
2018,07,14,06,30,16.60
2018,07,14,06,31,16.60
2018,07,14,06,32,16.60
2018,07,14,06,33,16.60
2018,07,14,06,34,16.60
2018,07,14,06,35,16.60
2018,07,14,06,36,16.60
2018,07,14,06,37,16.60
2018,07,14,06,38,16.60
2018,07,14,06,39,16.60
2018,07,14,06,40,16.60
2018,07,14,06,41,16.60
2018,07,14,06,42,16.70
2018,07,14,06,43,16.70
2018,07,14,06,44,16.70
2018,07,14,06,45,16.60
2018,07,14,06,46,16.70
2018,07,14,06,47,16.70
2018,07,14,06,48,16.70
2018,07,14,06,49,16.70
2018,07,14,06,50,16.70
2018,07,14,06,51,16.70
2018,07,14,06,52,16.70
2018,07,14,06,53,16.70
2018,07,14,06,54,16.70
2018,07,14,06,55,16.70
2018,07,14,06,56,16.70
2018,07,14,06,57,16.70
2018,07,14,06,58,16.70
2018,07,14,06,59,16.70
2018,07,14,07,00,16.70
2018,07,14,07,01,16.70
2018,07,14,07,02,16.70
2018,07,14,07,03,16.70
2018,07,14,07,04,16.70
2018,07,14,07,05,16.70
2018,07,14,07,06,16.80
2018,07,14,07,07,16.80
2018,07,14,07,08,16.80
2018,07,14,07,09,16.80
2018,07,14,07,10,16.80
2018,07,14,07,11,16.80
2018,07,14,07,12,16.80
2018,07,14,07,13,16.80
2018,07,14,07,14,16.80
2018,07,14,07,15,16.80
2018,07,14,07,16,16.80
2018,07,14,07,17,16.80
2018,07,14,07,18,16.80
2018,07,14,07,19,16.80
2018,07,14,07,20,16.80
2018,07,14,07,21,16.80
2018,07,14,07,22,16.80
2018,07,14,07,23,16.80
2018,07,14,07,24,16.80
2018,07,14,07,25,16.80
2018,07,14,07,26,16.80
2018,07,14,07,27,16.80
2018,07,14,07,28,16.80
2018,07,14,07,29,16.80
2018,07,14,07,30,16.80
2018,07,14,07,31,16.80
2018,07,14,07,32,16.80
2018,07,14,07,33,16.80
2018,07,14,07,34,16.80
2018,07,14,07,35,16.80
2018,07,14,07,36,16.70
2018,07,14,07,37,16.70
2018,07,14,07,38,16.70
2018,07,14,07,39,16.70
2018,07,14,07,40,16.70
2018,07,14,07,41,16.80
2018,07,14,07,42,16.80
2018,07,14,07,43,16.80
2018,07,14,07,44,16.80
2018,07,14,07,45,16.80
2018,07,14,07,46,16.80
2018,07,14,07,47,16.80
2018,07,14,07,48,16.80
2018,07,14,07,49,16.80
2018,07,14,07,50,16.80
2018,07,14,07,51,16.80
2018,07,14,07,52,16.90
2018,07,14,07,53,16.90
2018,07,14,07,54,16.90
2018,07,14,07,55,16.90
2018,07,14,07,56,16.90
2018,07,14,07,57,16.90
2018,07,14,07,58,16.90
2018,07,14,07,59,16.90
2018,07,14,08,00,16.90
2018,07,14,08,01,16.90
2018,07,14,08,02,16.90
2018,07,14,08,03,17.00
2018,07,14,08,04,17.00
2018,07,14,08,05,17.00
2018,07,14,08,06,17.10
2018,07,14,08,07,17.10
2018,07,14,08,08,17.10
2018,07,14,08,09,17.10
2018,07,14,08,10,17.10
2018,07,14,08,11,17.20
2018,07,14,08,12,17.20
2018,07,14,08,13,17.20
2018,07,14,08,14,17.20
2018,07,14,08,15,17.20
2018,07,14,08,16,17.20
2018,07,14,08,17,17.30
2018,07,14,08,18,17.30
2018,07,14,08,19,17.30
2018,07,14,08,20,17.30
2018,07,14,08,21,17.30
2018,07,14,08,22,17.30
2018,07,14,08,23,17.30
2018,07,14,08,24,17.30
2018,07,14,08,25,17.30
2018,07,14,08,26,17.30
2018,07,14,08,27,17.40
2018,07,14,08,28,17.40
2018,07,14,08,29,17.40
2018,07,14,08,30,17.40
2018,07,14,08,31,17.40
2018,07,14,08,32,17.50
2018,07,14,08,33,17.50
2018,07,14,08,34,17.50
2018,07,14,08,35,17.60
2018,07,14,08,36,17.60
2018,07,14,08,37,17.60
2018,07,14,08,38,17.60
2018,07,14,08,39,17.60
2018,07,14,08,40,17.60
2018,07,14,08,41,17.60
2018,07,14,08,42,17.60
2018,07,14,08,43,17.60
2018,07,14,08,44,17.60
2018,07,14,08,45,17.70
2018,07,14,08,46,17.70
2018,07,14,08,47,17.70
2018,07,14,08,48,17.70
2018,07,14,08,49,17.70
2018,07,14,08,50,17.70
2018,07,14,08,51,17.70
2018,07,14,08,52,17.70
2018,07,14,08,53,17.70
2018,07,14,08,54,17.70
2018,07,14,08,55,17.70
2018,07,14,08,56,17.70
2018,07,14,08,57,17.70
2018,07,14,08,58,17.70
2018,07,14,08,59,17.70
2018,07,14,09,00,17.70
2018,07,14,09,01,17.70
2018,07,14,09,02,17.70
2018,07,14,09,03,17.70
2018,07,14,09,04,17.80
2018,07,14,09,05,17.80
2018,07,14,09,06,17.80
2018,07,14,09,07,17.80
2018,07,14,09,08,17.80
2018,07,14,09,09,17.90
2018,07,14,09,10,17.80
2018,07,14,09,11,17.80
2018,07,14,09,12,17.80
2018,07,14,09,13,17.80
2018,07,14,09,14,17.90
2018,07,14,09,15,17.90
2018,07,14,09,16,17.90
2018,07,14,09,17,17.90
2018,07,14,09,18,17.90
2018,07,14,09,19,17.90
2018,07,14,09,20,17.90
2018,07,14,09,21,17.90
2018,07,14,09,22,17.90
2018,07,14,09,23,18.00
2018,07,14,09,24,18.00
2018,07,14,09,25,18.00
2018,07,14,09,26,18.00
2018,07,14,09,27,18.00
2018,07,14,09,28,18.00
2018,07,14,09,29,18.00
2018,07,14,09,30,18.10
2018,07,14,09,31,18.20
2018,07,14,09,32,18.30
2018,07,14,09,33,18.30
2018,07,14,09,34,18.30
2018,07,14,09,35,18.40
2018,07,14,09,36,18.40
2018,07,14,09,37,18.40
2018,07,14,09,38,18.40
2018,07,14,09,39,18.40
2018,07,14,09,40,18.50
2018,07,14,09,41,18.50
2018,07,14,09,42,18.60
2018,07,14,09,43,18.60
2018,07,14,09,44,18.70
2018,07,14,09,45,18.70
2018,07,14,09,46,18.70
2018,07,14,09,47,18.70
2018,07,14,09,48,18.80
2018,07,14,09,49,18.80
2018,07,14,09,50,18.90
2018,07,14,09,51,19.00
2018,07,14,09,52,19.00
2018,07,14,09,53,19.10
2018,07,14,09,54,19.10
2018,07,14,09,55,19.20
2018,07,14,09,56,19.20
2018,07,14,09,57,19.30
2018,07,14,09,58,19.30
2018,07,14,09,59,19.30
2018,07,14,10,00,19.40
2018,07,14,10,01,19.40
2018,07,14,10,02,19.40
2018,07,14,10,03,19.40
2018,07,14,10,04,19.50
2018,07,14,10,05,19.50
2018,07,14,10,06,19.50
2018,07,14,10,07,19.50
2018,07,14,10,08,19.50
2018,07,14,10,09,19.50
2018,07,14,10,10,19.50
2018,07,14,10,11,19.60
2018,07,14,10,12,19.60
2018,07,14,10,13,19.60
2018,07,14,10,14,19.70
2018,07,14,10,15,19.70
2018,07,14,10,16,19.80
2018,07,14,10,17,19.80
2018,07,14,10,18,19.80
2018,07,14,10,19,19.80
2018,07,14,10,20,19.80
2018,07,14,10,21,19.80
2018,07,14,10,22,19.80
2018,07,14,10,23,19.70
2018,07,14,10,24,19.80
2018,07,14,10,25,19.80
2018,07,14,10,26,19.90
2018,07,14,10,27,19.90
2018,07,14,10,28,19.90
2018,07,14,10,29,20.00
2018,07,14,10,30,20.10
2018,07,14,10,31,20.10
2018,07,14,10,32,20.20
2018,07,14,10,33,20.20
2018,07,14,10,34,20.30
2018,07,14,10,35,20.30
2018,07,14,10,36,20.30
2018,07,14,10,37,20.30
2018,07,14,10,38,20.40
2018,07,14,10,39,20.40
2018,07,14,10,40,20.40
2018,07,14,10,41,20.50
2018,07,14,10,42,20.50
2018,07,14,10,43,20.60
2018,07,14,10,44,20.70
2018,07,14,10,45,20.70
2018,07,14,10,46,20.70
2018,07,14,10,47,20.80
2018,07,14,10,48,20.80
2018,07,14,10,49,20.80
2018,07,14,10,50,20.80
2018,07,14,10,51,20.80
2018,07,14,10,52,20.90
2018,07,14,10,53,20.90
2018,07,14,10,54,20.90
2018,07,14,10,55,20.90
2018,07,14,10,56,21.00
2018,07,14,10,57,21.00
2018,07,14,10,58,21.00
2018,07,14,10,59,21.10
2018,07,14,11,00,21.10
2018,07,14,11,01,21.20
2018,07,14,11,02,21.30
2018,07,14,11,03,21.30
2018,07,14,11,04,21.30
2018,07,14,11,05,21.40
2018,07,14,11,06,21.40
2018,07,14,11,07,21.40
2018,07,14,11,08,21.40
2018,07,14,11,09,21.50
2018,07,14,11,10,21.50
2018,07,14,11,11,21.50
2018,07,14,11,12,21.50
2018,07,14,11,13,21.50
2018,07,14,11,14,21.50
2018,07,14,11,15,21.50
2018,07,14,11,16,21.50
2018,07,14,11,17,21.60
2018,07,14,11,18,21.60
2018,07,14,11,19,21.60
2018,07,14,11,20,21.70
2018,07,14,11,21,21.70
2018,07,14,11,22,21.70
2018,07,14,11,23,21.80
2018,07,14,11,24,21.80
2018,07,14,11,25,21.80
2018,07,14,11,26,21.80
2018,07,14,11,27,21.90
2018,07,14,11,28,21.90
2018,07,14,11,29,22.00
2018,07,14,11,30,22.00
2018,07,14,11,31,22.10
2018,07,14,11,32,22.10
2018,07,14,11,33,22.20
2018,07,14,11,34,22.30
2018,07,14,11,35,22.30
2018,07,14,11,36,22.30
2018,07,14,11,37,22.40
2018,07,14,11,38,22.40
2018,07,14,11,39,22.40
2018,07,14,11,40,22.50
2018,07,14,11,41,22.50
2018,07,14,11,42,22.60
2018,07,14,11,43,22.60
2018,07,14,11,44,22.70
2018,07,14,11,45,22.70
2018,07,14,11,46,22.80
2018,07,14,11,47,22.80
2018,07,14,11,48,22.80
2018,07,14,11,49,22.80
2018,07,14,11,50,22.70
2018,07,14,11,51,22.70
2018,07,14,11,52,22.60
2018,07,14,11,53,22.60
2018,07,14,11,54,22.70
2018,07,14,11,55,22.70
2018,07,14,11,56,22.80
2018,07,14,11,57,22.90
2018,07,14,11,58,23.00
2018,07,14,11,59,23.10
2018,07,14,12,00,23.20
2018,07,14,12,01,23.30
2018,07,14,12,02,23.30
2018,07,14,12,03,23.30
2018,07,14,12,04,23.40
2018,07,14,12,05,23.40
2018,07,14,12,06,23.40
2018,07,14,12,07,23.40
2018,07,14,12,08,23.40
2018,07,14,12,09,23.40
2018,07,14,12,10,23.50
2018,07,14,12,11,23.50
2018,07,14,12,12,23.60
2018,07,14,12,13,23.50
2018,07,14,12,14,23.40
2018,07,14,12,15,23.30
2018,07,14,12,16,23.30
2018,07,14,12,17,23.30
2018,07,14,12,18,23.30
2018,07,14,12,19,23.30
2018,07,14,12,20,23.30
2018,07,14,12,21,23.30
2018,07,14,12,22,23.20
2018,07,14,12,23,23.20
2018,07,14,12,24,23.20
2018,07,14,12,25,23.30
2018,07,14,12,26,23.40
2018,07,14,12,27,23.50
2018,07,14,12,28,23.50
2018,07,14,12,29,23.60
2018,07,14,12,30,23.70
2018,07,14,12,31,23.80
2018,07,14,12,32,23.80
2018,07,14,12,33,24.00
2018,07,14,12,34,24.10
2018,07,14,12,35,24.10
2018,07,14,12,36,24.10
2018,07,14,12,37,24.10
2018,07,14,12,38,24.00
2018,07,14,12,39,24.00
2018,07,14,12,40,23.90
2018,07,14,12,41,23.90
2018,07,14,12,42,23.90
2018,07,14,12,43,23.90
2018,07,14,12,44,23.90
2018,07,14,12,45,24.00
2018,07,14,12,46,24.00
2018,07,14,12,47,24.10
2018,07,14,12,48,24.10
2018,07,14,12,49,24.10
2018,07,14,12,50,24.10
2018,07,14,12,51,24.10
2018,07,14,12,52,24.20
2018,07,14,12,53,24.20
2018,07,14,12,54,24.20
2018,07,14,12,55,24.20
2018,07,14,12,56,24.20
2018,07,14,12,57,24.20
2018,07,14,12,58,24.30
2018,07,14,12,59,24.30
2018,07,14,13,00,24.40
2018,07,14,13,01,24.40
2018,07,14,13,02,24.40
2018,07,14,13,03,24.40
2018,07,14,13,04,24.40
2018,07,14,13,05,24.40
2018,07,14,13,06,24.40
2018,07,14,13,07,24.40
2018,07,14,13,08,24.40
2018,07,14,13,09,24.40
2018,07,14,13,10,24.40
2018,07,14,13,11,24.40
2018,07,14,13,12,24.40
2018,07,14,13,13,24.40
2018,07,14,13,14,24.40
2018,07,14,13,15,24.50
2018,07,14,13,16,24.60
2018,07,14,13,17,24.60
2018,07,14,13,18,24.70
2018,07,14,13,19,24.80
2018,07,14,13,20,24.80
2018,07,14,13,21,24.90
2018,07,14,13,22,25.00
2018,07,14,13,23,25.10
2018,07,14,13,24,25.20
2018,07,14,13,25,25.20
2018,07,14,13,26,25.10
2018,07,14,13,27,25.10
2018,07,14,13,28,25.00
2018,07,14,13,29,25.00
2018,07,14,13,30,24.90
2018,07,14,13,31,24.80
2018,07,14,13,32,24.80
2018,07,14,13,33,24.90
2018,07,14,13,34,24.90
2018,07,14,13,35,24.90
2018,07,14,13,36,25.00
2018,07,14,13,37,25.10
2018,07,14,13,38,25.10
2018,07,14,13,39,25.10
2018,07,14,13,40,25.20
2018,07,14,13,41,25.30
2018,07,14,13,42,25.30
2018,07,14,13,43,25.40
2018,07,14,13,44,25.60
2018,07,14,13,45,25.70
2018,07,14,13,46,25.80
2018,07,14,13,47,25.90
2018,07,14,13,48,26.00
2018,07,14,13,49,26.10
2018,07,14,13,50,26.10
2018,07,14,13,51,26.10
2018,07,14,13,52,26.10
2018,07,14,13,53,26.00
2018,07,14,13,54,26.00
2018,07,14,13,55,26.10
2018,07,14,13,56,26.10
2018,07,14,13,57,26.30
2018,07,14,13,58,26.30
2018,07,14,13,59,26.40
2018,07,14,14,00,26.40
2018,07,14,14,01,26.40
2018,07,14,14,02,26.30
2018,07,14,14,03,26.10
2018,07,14,14,04,26.00
2018,07,14,14,05,25.90
2018,07,14,14,06,25.90
2018,07,14,14,07,25.80
2018,07,14,14,08,25.80
2018,07,14,14,09,25.80
2018,07,14,14,10,25.80
2018,07,14,14,11,25.80
2018,07,14,14,12,25.80
2018,07,14,14,13,25.90
2018,07,14,14,14,26.00
2018,07,14,14,15,26.00
2018,07,14,14,16,26.10
2018,07,14,14,17,26.10
2018,07,14,14,18,26.10
2018,07,14,14,19,26.10
2018,07,14,14,20,26.10
2018,07,14,14,21,26.30
2018,07,14,14,22,26.50
2018,07,14,14,23,26.60
2018,07,14,14,24,26.70
2018,07,14,14,25,26.80
2018,07,14,14,26,26.80
2018,07,14,14,27,26.80
2018,07,14,14,28,26.70
2018,07,14,14,29,26.70
2018,07,14,14,30,26.70
2018,07,14,14,31,26.80
2018,07,14,14,32,26.80
2018,07,14,14,33,26.80
2018,07,14,14,34,26.90
2018,07,14,14,35,27.00
2018,07,14,14,36,27.00
2018,07,14,14,37,27.00
2018,07,14,14,38,26.90
2018,07,14,14,39,26.80
2018,07,14,14,40,26.70
2018,07,14,14,41,26.60
2018,07,14,14,42,26.50
2018,07,14,14,43,26.40
2018,07,14,14,44,26.40
2018,07,14,14,45,26.50
2018,07,14,14,46,26.50
2018,07,14,14,47,26.60
2018,07,14,14,48,26.60
2018,07,14,14,49,26.60
2018,07,14,14,50,26.70
2018,07,14,14,51,26.70
2018,07,14,14,52,26.80
2018,07,14,14,53,26.90
2018,07,14,14,54,27.00
2018,07,14,14,55,27.10
2018,07,14,14,56,27.20
2018,07,14,14,57,27.20
2018,07,14,14,58,27.20
2018,07,14,14,59,27.20
2018,07,14,15,00,27.20
2018,07,14,15,01,27.20
2018,07,14,15,02,27.20
2018,07,14,15,03,27.20
2018,07,14,15,04,27.20
2018,07,14,15,05,27.20
2018,07,14,15,06,27.20
2018,07,14,15,07,27.20
2018,07,14,15,08,27.20
2018,07,14,15,09,27.30
2018,07,14,15,10,27.30
2018,07,14,15,11,27.40
2018,07,14,15,12,27.50
2018,07,14,15,13,27.60
2018,07,14,15,14,27.70
2018,07,14,15,15,27.70
2018,07,14,15,16,27.70
2018,07,14,15,17,27.70
2018,07,14,15,18,27.60
2018,07,14,15,19,27.60
2018,07,14,15,20,27.50
2018,07,14,15,21,27.40
2018,07,14,15,22,27.30
2018,07,14,15,23,27.10
2018,07,14,15,24,27.10
2018,07,14,15,25,27.10
2018,07,14,15,26,27.10
2018,07,14,15,27,27.00
2018,07,14,15,28,27.00
2018,07,14,15,29,26.90
2018,07,14,15,30,26.90
2018,07,14,15,31,26.90
2018,07,14,15,32,26.90
2018,07,14,15,33,26.90
2018,07,14,15,34,27.00
2018,07,14,15,35,26.90
2018,07,14,15,36,26.80
2018,07,14,15,37,26.80
2018,07,14,15,38,26.70
2018,07,14,15,39,26.70
2018,07,14,15,40,26.80
2018,07,14,15,41,26.80
2018,07,14,15,42,26.80
2018,07,14,15,43,26.80
2018,07,14,15,44,26.80
2018,07,14,15,45,26.70
2018,07,14,15,46,26.70
2018,07,14,15,47,26.70
2018,07,14,15,48,26.70
2018,07,14,15,49,26.80
2018,07,14,15,50,27.00
2018,07,14,15,51,27.10
2018,07,14,15,52,27.20
2018,07,14,15,53,27.30
2018,07,14,15,54,27.40
2018,07,14,15,55,27.40
2018,07,14,15,56,27.50
2018,07,14,15,57,27.50
2018,07,14,15,58,27.60
2018,07,14,15,59,27.60
2018,07,14,16,00,27.70
2018,07,14,16,01,27.70
2018,07,14,16,02,27.80
2018,07,14,16,03,27.80
2018,07,14,16,04,27.80
2018,07,14,16,05,27.80
2018,07,14,16,06,27.80
2018,07,14,16,07,27.80
2018,07,14,16,08,27.80
2018,07,14,16,09,27.70
2018,07,14,16,10,27.70
2018,07,14,16,11,27.60
2018,07,14,16,12,27.60
2018,07,14,16,13,27.60
2018,07,14,16,14,27.60
2018,07,14,16,15,27.60
2018,07,14,16,16,27.70
2018,07,14,16,17,27.80
2018,07,14,16,18,27.90
2018,07,14,16,19,28.00
2018,07,14,16,20,28.00
2018,07,14,16,21,28.10
2018,07,14,16,22,28.20
2018,07,14,16,23,28.30
2018,07,14,16,24,28.30
2018,07,14,16,25,28.30
2018,07,14,16,26,28.30
2018,07,14,16,27,28.20
2018,07,14,16,28,28.10
2018,07,14,16,29,28.10
2018,07,14,16,30,28.10
2018,07,14,16,31,28.20
2018,07,14,16,32,28.20
2018,07,14,16,33,28.20
2018,07,14,16,34,28.20
2018,07,14,16,35,28.20
2018,07,14,16,36,28.20
2018,07,14,16,37,28.30
2018,07,14,16,38,28.20
2018,07,14,16,39,28.20
2018,07,14,16,40,28.30
2018,07,14,16,41,28.30
2018,07,14,16,42,28.30
2018,07,14,16,43,28.20
2018,07,14,16,44,28.20
2018,07,14,16,45,28.10
2018,07,14,16,46,28.10
2018,07,14,16,47,28.10
2018,07,14,16,48,28.10
2018,07,14,16,49,28.00
2018,07,14,16,50,28.00
2018,07,14,16,51,28.00
2018,07,14,16,52,28.10
2018,07,14,16,53,28.10
2018,07,14,16,54,28.10
2018,07,14,16,55,28.10
2018,07,14,16,56,28.20
2018,07,14,16,57,28.20
2018,07,14,16,58,28.20
2018,07,14,16,59,28.20
2018,07,14,17,00,28.20
2018,07,14,17,01,28.20
2018,07,14,17,02,28.20
2018,07,14,17,03,28.20
2018,07,14,17,04,28.20
2018,07,14,17,05,28.30
2018,07,14,17,06,28.30
2018,07,14,17,07,28.30
2018,07,14,17,08,28.30
2018,07,14,17,09,28.30
2018,07,14,17,10,28.30
2018,07,14,17,11,28.30
2018,07,14,17,12,28.30
2018,07,14,17,13,28.30
2018,07,14,17,14,28.30
2018,07,14,17,15,28.30
2018,07,14,17,16,28.40
2018,07,14,17,17,28.40
2018,07,14,17,18,28.50
2018,07,14,17,19,28.60